Location: Mentone
(34.5413°N, 85.5351°W)
Time: 10:15:35
(UTC-06:00)

Tiros 1 despin weight - Visible Passes

Search period start: 24 February 2018 00:00
Search period end: 06 March 2018 00:00
Orbit: 595 x 643 km, 48.2° (Epoch: 24 February)

Date Brightness Start Highest point End Pass type
(mag) Time Alt. Az. Time Alt. Az. Time Alt. Az.
24 Feb ? 18:52:40 10° NW 18:55:34 17° NNW 18:58:15 11° NNE visible
25 Feb ? 19:10:32 10° NW 19:12:58 14° N 19:14:28 12° NNE visible
26 Feb ? 19:28:00 10° NNW 19:30:24 14° N 19:30:38 14° N visible
27 Feb ? 18:02:07 10° NW 18:04:48 15° N 18:07:29 10° NNE visible
27 Feb ? 19:44:58 10° NNW 19:46:49 15° N 19:46:49 15° N visible
28 Feb ? 18:19:50 10° NNW 18:22:13 14° N 18:24:34 10° NNE visible
28 Feb ? 20:01:38 10° NNW 20:03:00 16° NNW 20:03:00 16° NNW visible
01 Mar ? 18:37:03 10° NNW 18:39:38 15° N 18:42:07 10° NE visible
01 Mar ? 20:18:14 10° NW 20:19:12 15° NNW 20:19:12 15° NNW visible
02 Mar ? 18:53:52 10° NNW 18:57:00 18° NNE 18:58:20 16° NE visible
02 Mar ? 20:34:53 10° NW 20:35:25 13° NW 20:35:25 13° NW visible
03 Mar ? 19:10:30 10° NW 19:14:16 25° NNE 19:14:37 25° NNE visible
04 Mar ? 19:27:06 10° NW 19:30:56 40° NNE 19:30:56 40° NNE visible
05 Mar ? 18:02:44 10° NNW 18:06:11 21° NNE 18:09:35 10° ENE visible
05 Mar ? 19:43:49 10° NW 19:47:20 53° NW 19:47:20 53° NW visible
